User: anonymous   Login
Location: Unspecified
(0.0000°N, 0.0000°E)
Time: 06:31:48
(UTC+00:00)
Language:

SR - Orbit

View from above orbital plane
View from above orbital plane
View from above satellite
View from above satellite

Ground track
Ground track

The orbit data is extracted from the following two-line orbital elements,

1    46U 60007B   16146.94504493 +.00000067 +00000-0 +36573-4 0  9990
2    46 066.6904 093.9129 0208257 158.7865 202.2042 14.48879005924159
Epoch (UTC): 25 May 2016 22:40:51
Eccentricity: 0.0208257
inclination: 66.6904°
perigee height: 581 km
apogee height: 877 km
right ascension of ascending node: 93.9129°
argument of perigee: 158.7865°
revolutions per day: 14.48879005
mean anomaly at epoch: 202.2042°
orbit number at epoch: 92415

The dashed part of the orbit path shows where the satellite is in the earth's shadow,  

DLR